Dewpoint
43 39 37 33 34 36 35 35 37 40 41 42 42 42 43 42 42 42 42 41 41 41
44 42 40 38 36 36 36 36 36 38 40 40 41 42 42 41 41 41 41 42 42 42
43 41 40 39 37 38 38 38 38 38 39 39 40 42 42 42 41 41 41 41 41 41
43 43 43 40 37 38 38 38 37 36 36 36 37 37 41 41 41 40 39 40 39 39
45 45 44 41 38 38 38 38 37 36 35 34 35 35 36 37 39 39 38 38 38 38
40 39 39 38 38 38 38 38 37 36 36 35 35 35 35 35 35 37 38 38 37 37
37 37 37 38 39 38 39 39 39 39 39 38 37 35 35 34 34 34 34 35 36 35
32 32 32 32 33 34 35 35 36 37 38 38 39 41 39 37 35 35 34 35 34 35
19 18 18 19 19 19 20 22 25 28 30 33 35 36 37 38 39 36 33 32 31 30
15 16 16 17 17 18 20 22 22 22 22 24 26 28 32 35 36 37 38 34 32 30
16 16 17 17 17 18 19 19 19 21 20 21 21 24 28 32 34 36 37 37 33 33
15 15 15 16 16 17 17 19 18 18 19 21 23 24 27 29 29 32 34 38 35 35
13 13 14 13 13 15 16 16 17 17 20 22 23 25 27 28 28 30 31 36 37 35
10 11 10 10 13 15 15 16 21 22 24 23 22 24 25 27 28 30 31 33 35 35
Wind_Speed
3 4 6 7 10 11 12 13 13 14 15 14 14 14 13 14 14 14 14 15 16 17
5 6 12 12 11 12 12 12 14 15 16 17 17 15 15 14 15 14 14 14 17 16
7 9 11 14 14 15 15 15 16 17 18 19 18 17 17 16 16 16 15 14 17 18
15 18 14 15 16 16 16 17 18 19 20 20 21 18 15 17 18 19 18 18 20 20
18 17 16 15 16 17 19 20 21 22 22 21 21 20 20 21 19 19 19 20 20 21
17 18 16 16 18 20 22 22 24 24 24 24 23 23 22 22 23 22 21 21 21 21
17 19 20 19 19 19 20 21 21 23 26 26 27 28 26 26 24 24 23 22 19 20
18 18 18 19 19 19 19 20 21 24 23 22 22 23 26 28 26 23 24 22 22 21
19 19 20 21 22 23 24 25 25 23 24 26 25 25 30 26 25 30 26 26 25 23
18 20 21 22 23 23 24 25 26 27 28 28 27 26 30 30 24 24 30 28 25 24
20 21 22 23 24 24 24 25 26 25 27 27 26 25 28 28 30 31 29 32 27 27
21 22 23 24 25 25 25 25 25 27 28 28 29 29 29 29 30 30 30 31 29 25
21 23 24 25 26 25 27 27 27 29 29 30 30 31 31 30 29 30 28 29 28 25
22 23 24 26 25 27 27 27 25 27 26 29 27 29 30 33 31 32 27 27 22 15
Wind_Direction
287 285 265 290 301 299 301 298 301 296 291 282 282 279 277 282 285 285 285 281 276 279
302 285 294 283 281 291 294 291 290 291 286 284 287 291 288 284 283 288 282 281 280 281
306 308 314 294 284 287 290 290 290 290 286 282 267 260 260 268 267 266 263 260 264 264
298 312 286 272 277 285 293 292 290 289 287 284 282 276 258 259 264 264 267 263 260 262
315 303 306 292 287 292 290 289 291 290 286 284 281 277 270 266 265 264 266 269 271 270
324 320 313 300 300 303 297 291 287 284 282 281 280 279 275 275 270 255 253 256 260 265
342 338 335 340 337 335 329 320 311 304 296 290 283 275 271 269 266 266 265 266 258 262
343 335 329 325 324 318 313 311 313 313 311 307 306 299 294 287 266 257 259 260 252 245
338 334 330 328 323 321 318 317 313 305 302 307 305 295 288 289 291 284 271 270 267 262
341 336 334 330 327 324 322 319 316 313 314 310 304 299 306 305 296 284 276 266 265 263
336 330 327 323 321 319 316 313 310 307 304 301 305 306 301 301 296 288 274 268 262 263
328 327 324 322 321 318 319 315 312 310 310 311 308 310 305 297 296 287 280 267 259 258
329 326 325 322 320 321 316 315 313 313 312 309 307 307 310 311 309 288 284 267 248 246
331 328 324 322 322 317 318 317 314 311 310 308 308 312 320 322 321 303 280 269 243 220